| time (UTC) | temp F | wind direction | speed MPH | gust MPH | rain 1hr in | rain 24hr in | rain mn in | humidity % | barometer mb |
| 20260507085007 | 57 | 218 | 4.0 | 6.0 | 0.00 | 0.00 | 0.00 | 1014.3 | |
| 20260507084529 | 59 | 183 | 3.0 | 4.0 | 0.00 | 0.00 | 0.00 | 55 | 1014.3 |
| 20260507084003 | 60 | 169 | 0.0 | 6.0 | 0.00 | 0.00 | 0.00 | 55 | 1014.3 |
| 20260507083509 | 61 | 172 | 3.0 | 6.0 | 0.00 | 0.00 | 0.00 | 54 | 1014.3 |
| 20260507083017 | 62 | 249 | 0.0 | 3.0 | 0.00 | 0.00 | 0.00 | 52 | 1014.3 |
| 20260507082508 | 62 | 298 | 0.0 | 4.0 | 0.00 | 0.00 | 0.00 | 52 | 1014.3 |
| 20260507082007 | 62 | 294 | 2.0 | 7.0 | 0.00 | 0.00 | 0.00 | 50 | 1014.2 |
| 20260507081503 | 62 | 299 | 4.0 | 7.0 | 0.00 | 0.00 | 0.00 | 51 | 1014.1 |
| 20260507081004 | 62 | 263 | 3.0 | 6.0 | 0.00 | 0.00 | 0.00 | 51 | 1014.2 |
| 20260507080502 | 62 | 270 | 2.0 | 7.0 | 0.00 | 0.00 | 0.00 | 51 | 1014.3 |
| 20260507080013 | 62 | 207 | 5.0 | 7.0 | 0.00 | 0.00 | 0.00 | 52 | 1014.4 |
| 20260507075506 | 61 | 197 | 5.0 | 7.0 | 0.00 | 0.00 | 0.00 | 52 | 1014.5 |
| 20260507075010 | 62 | 201 | 3.0 | 4.0 | 0.00 | 0.00 | 0.00 | 52 | 1014.3 |
| 20260507074524 | 62 | 196 | 2.0 | 4.0 | 0.00 | 0.00 | 0.00 | 51 | 1014.2 |
| 20260507074006 | 62 | 157 | 2.0 | 4.0 | 0.00 | 0.00 | 0.00 | 51 | 1014.2 |
| 20260507073511 | 62 | 171 | 1.0 | 2.0 | 0.00 | 0.00 | 0.00 | 51 | 1014.2 |
| 20260507073009 | 62 | 165 | 1.0 | 4.0 | 0.00 | 0.00 | 0.00 | 50 | 1014.2 |
| 20260507072506 | 62 | 152 | 0.0 | 5.0 | 0.00 | 0.00 | 0.00 | 50 | 1014.0 |
| 20260507072006 | 62 | 184 | 2.0 | 5.0 | 0.00 | 0.00 | 0.00 | 49 | 1014.0 |
| 20260507071524 | 61 | 225 | 3.0 | 7.0 | 0.00 | 0.00 | 0.00 | 49 | 1014.0 |
| 20260507071008 | 62 | 194 | 2.0 | 7.0 | 0.00 | 0.00 | 0.00 | 50 | 1013.9 |
| 20260507070510 | 62 | 259 | 2.0 | 4.0 | 0.00 | 0.00 | 0.00 | 50 | 1013.7 |
| 20260507070025 | 63 | 274 | 2.0 | 4.0 | 0.00 | 0.00 | 0.00 | 50 | 1013.6 |
| 20260507065508 | 64 | 48 | 3.0 | 4.0 | 0.00 | 0.00 | 0.00 | 47 | 1013.7 |
| 20260507065004 | 65 | 29 | 1.0 | 6.0 | 0.00 | 0.00 | 0.00 | 46 | 1013.8 |
| 20260507064511 | 66 | 280 | 0.0 | 8.0 | 0.00 | 0.00 | 0.00 | 44 | 1013.6 |
| 20260507064004 | 66 | 288 | 4.0 | 10.0 | 0.00 | 0.00 | 0.00 | 44 | 1013.5 |
| 20260507063508 | 66 | 294 | 6.0 | 12.0 | 0.00 | 0.00 | 0.00 | 43 | 1013.3 |
| 20260507063020 | 67 | 280 | 7.0 | 12.0 | 0.00 | 0.00 | 0.00 | 41 | 1013.2 |
| 20260507062509 | 68 | 281 | 6.0 | 12.0 | 0.00 | 0.00 | 0.00 | 41 | 1013.1 |
| 20260507062009 | 69 | 277 | 7.0 | 14.0 | 0.00 | 0.00 | 0.00 | 39 | 1013.1 |
| 20260507061526 | 69 | 286 | 9.0 | 15.0 | 0.00 | 0.00 | 0.00 | 40 | 1013.3 |
| 20260507061004 | 69 | 279 | 11.0 | 14.0 | 0.00 | 0.00 | 0.00 | 38 | 1013.4 |
| 20260507060505 | 69 | 297 | 6.0 | 9.0 | 0.00 | 0.00 | 0.00 | 37 | 1013.6 |
| 20260507060022 | 69 | 284 | 2.0 | 5.0 | 0.00 | 0.00 | 0.00 | 36 | 1013.6 |
| 20260507055509 | 69 | 263 | 2.0 | 8.0 | 0.00 | 0.00 | 0.00 | 35 | 1013.5 |
| 20260507055008 | 69 | 276 | 3.0 | 10.0 | 0.00 | 0.00 | 0.00 | 35 | 1013.5 |
| 20260507054528 | 69 | 292 | 3.0 | 10.0 | 0.00 | 0.00 | 0.00 | 35 | 1013.5 |
| 20260507054010 | 69 | 306 | 5.0 | 11.0 | 0.00 | 0.00 | 0.00 | 35 | 1013.4 |
| 20260507053508 | 69 | 300 | 6.0 | 11.0 | 0.00 | 0.00 | 0.00 | 35 | 1013.3 |
| 20260507053012 | 70 | 305 | 8.0 | 10.0 | 0.00 | 0.00 | 0.00 | 34 | 1013.4 |
| 20260507052507 | 70 | 313 | 7.0 | 8.0 | 0.00 | 0.00 | 0.00 | 33 | 1013.5 |
| 20260507052004 | 70 | 300 | 4.0 | 8.0 | 0.00 | 0.00 | 0.00 | 33 | 1013.5 |
| 20260507051522 | 70 | 298 | 6.0 | 9.0 | 0.00 | 0.00 | 0.00 | 33 | 1013.6 |
| 20260507051007 | 70 | 292 | 6.0 | 9.0 | 0.00 | 0.00 | 0.00 | 33 | 1013.4 |
| 20260507050507 | 70 | 296 | 6.0 | 8.0 | 0.00 | 0.00 | 0.00 | 33 | 1013.4 |
| 20260507050039 | 70 | 286 | 3.0 | 10.0 | 0.00 | 0.00 | 0.00 | 34 | 1013.3 |
| 20260507045507 | 70 | 298 | 6.0 | 10.0 | 0.00 | 0.00 | 0.00 | 34 | 1013.2 |
| 20260507045003 | 70 | 298 | 8.0 | 10.0 | 0.00 | 0.00 | 0.00 | 34 | 1013.2 |
| 20260507044517 | 71 | 299 | 7.0 | 9.0 | 0.00 | 0.00 | 0.00 | 33 | 1013.2 |
| 20260507044009 | 71 | 302 | 6.0 | 9.0 | 0.00 | 0.00 | 0.00 | 32 | 1013.2 |
| 20260507043506 | 71 | 305 | 3.0 | 4.0 | 0.00 | 0.00 | 0.00 | 32 | 1013.2 |
| 20260507043022 | 72 | 291 | 1.0 | 3.0 | 0.00 | 0.00 | 0.00 | 32 | 1013.2 |
| 20260507042507 | 72 | 256 | 0.0 | 3.0 | 0.00 | 0.00 | 0.00 | 31 | 1013.1 |
| 20260507042010 | 72 | 259 | 0.0 | 5.0 | 0.00 | 0.00 | 0.00 | 31 | 1013.1 |
| 20260507041529 | 72 | 273 | 2.0 | 5.0 | 0.00 | 0.00 | 0.00 | 31 | 1013.0 |
| 20260507041010 | 72 | 288 | 0.0 | 2.0 | 0.00 | 0.00 | 0.00 | 31 | 1012.9 |
| 20260507040504 | 72 | 319 | 0.0 | 4.0 | 0.00 | 0.00 | 0.00 | 31 | 1012.9 |
| 20260507040021 | 72 | 319 | 0.0 | 4.0 | 0.00 | 0.00 | 0.00 | 31 | 1012.8 |
| 20260507035507 | 72 | 312 | 2.0 | 7.0 | 0.00 | 0.00 | 0.00 | 31 | 1012.7 |
| 20260507035008 | 73 | 275 | 2.0 | 7.0 | 0.00 | 0.00 | 0.00 | 31 | 1012.7 |
| 20260507034526 | 73 | 295 | 3.0 | 10.0 | 0.00 | 0.00 | 0.00 | 31 | 1012.7 |
| 20260507034008 | 73 | 275 | 5.0 | 10.0 | 0.00 | 0.00 | 0.00 | 31 | 1012.7 |
| 20260507033509 | 73 | 269 | 4.0 | 8.0 | 0.00 | 0.00 | 0.00 | 33 | 1012.7 |
| 20260507033028 | 74 | 280 | 3.0 | 7.0 | 0.00 | 0.00 | 0.00 | 31 | 1012.7 |
| 20260507032506 | 74 | 298 | 2.0 | 9.0 | 0.00 | 0.00 | 0.00 | 30 | 1012.7 |
| 20260507032008 | 74 | 300 | 5.0 | 9.0 | 0.00 | 0.00 | 0.00 | 30 | 1012.7 |
| 20260507031522 | 74 | 256 | 4.0 | 11.0 | 0.00 | 0.00 | 0.00 | 31 | 1012.7 |
| 20260507031009 | 74 | 280 | 5.0 | 11.0 | 0.00 | 0.00 | 0.00 | 30 | 1012.7 |
| 20260507030512 | 75 | 273 | 3.0 | 8.0 | 0.00 | 0.00 | 0.00 | 32 | 1012.7 |
| 20260507030007 | 75 | 292 | 3.0 | 8.0 | 0.00 | 0.00 | 0.00 | 31 | 1012.7 |
| 20260507025504 | 75 | 283 | 2.0 | 8.0 | 0.00 | 0.00 | 0.00 | 30 | 1012.6 |
| 20260507025004 | 75 | 278 | 2.0 | 7.0 | 0.00 | 0.00 | 0.00 | 31 | 1012.5 |
| 20260507024517 | 75 | 305 | 3.0 | 7.0 | 0.00 | 0.00 | 0.00 | 29 | 1012.4 |
| 20260507024008 | 75 | 302 | 2.0 | 5.0 | 0.00 | 0.00 | 0.00 | 29 | 1012.3 |
| 20260507023508 | 75 | 284 | 0.0 | 3.0 | 0.00 | 0.00 | 0.00 | 29 | 1012.3 |
| 20260507023025 | 75 | 304 | 1.0 | 4.0 | 0.00 | 0.00 | 0.00 | 29 | 1012.3 |
| 20260507022508 | 76 | 298 | 2.0 | 6.0 | 0.00 | 0.00 | 0.00 | 28 | 1012.2 |
| 20260507022005 | 76 | 289 | 3.0 | 7.0 | 0.00 | 0.00 | 0.00 | 29 | 1012.2 |
| 20260507021509 | 76 | 284 | 3.0 | 7.0 | 0.00 | 0.00 | 0.00 | 29 | 1012.2 |
| 20260507021003 | 76 | 280 | 1.0 | 7.0 | 0.00 | 0.00 | 0.00 | 29 | 1012.2 |
| 20260507020506 | 77 | 285 | 3.0 | 10.0 | 0.00 | 0.00 | 0.00 | 29 | 1012.2 |
| 20260507020021 | 77 | 273 | 5.0 | 10.0 | 0.00 | 0.00 | 0.00 | 28 | 1012.2 |
| 20260507015507 | 77 | 309 | 3.0 | 14.0 | 0.00 | 0.00 | 0.00 | 29 | 1012.2 |
| 20260507015012 | 77 | 312 | 8.0 | 16.0 | 0.00 | 0.00 | 0.00 | 28 | 1012.2 |
| 20260507014529 | 78 | 302 | 11.0 | 16.0 | 0.00 | 0.00 | 0.00 | 27 | 1012.2 |
| 20260507014008 | 78 | 299 | 10.0 | 18.0 | 0.00 | 0.00 | 0.00 | 27 | 1012.2 |
| 20260507013504 | 78 | 315 | 9.0 | 18.0 | 0.00 | 0.00 | 0.00 | 27 | 1012.2 |
| 20260507013016 | 79 | 297 | 9.0 | 15.0 | 0.00 | 0.00 | 0.00 | 26 | 1012.2 |
| 20260507012506 | 79 | 296 | 9.0 | 18.0 | 0.00 | 0.00 | 0.00 | 26 | 1012.2 |
| 20260507012012 | 79 | 304 | 11.0 | 18.0 | 0.00 | 0.00 | 0.00 | 26 | 1012.2 |
| 20260507011526 | 79 | 301 | 14.0 | 19.0 | 0.00 | 0.00 | 0.00 | 25 | 1012.2 |
| 20260507011010 | 79 | 306 | 13.0 | 19.0 | 0.00 | 0.00 | 0.00 | 26 | 1012.1 |
| 20260507010513 | 80 | 298 | 12.0 | 17.0 | 0.00 | 0.00 | 0.00 | 26 | 1012.1 |
| 20260507010040 | 80 | 311 | 12.0 | 17.0 | 0.00 | 0.00 | 0.00 | 27 | 1012.1 |
| 20260507005506 | 80 | 267 | 8.0 | 19.0 | 0.00 | 0.00 | 0.00 | 26 | 1012.0 |
| 20260507005007 | 81 | 293 | 12.0 | 20.0 | 0.00 | 0.00 | 0.00 | 26 | 1012.0 |
| 20260507004521 | 81 | 291 | 13.0 | 23.0 | 0.00 | 0.00 | 0.00 | 25 | 1011.9 |
| 20260507004008 | 81 | 314 | 16.0 | 23.0 | 0.00 | 0.00 | 0.00 | 25 | 1011.8 |
| 20260507003511 | 81 | 279 | 13.0 | 21.0 | 0.00 | 0.00 | 0.00 | 27 | 1011.7 |
| 20260507003028 | 82 | 285 | 13.0 | 24.0 | 0.00 | 0.00 | 0.00 | 26 | 1011.6 |
| 20260507002508 | 82 | 323 | 17.0 | 24.0 | 0.00 | 0.00 | 0.00 | 27 | 1011.4 |
| 20260507002009 | 82 | 312 | 13.0 | 23.0 | 0.00 | 0.00 | 0.00 | 27 | 1011.3 |
| 20260507001515 | 83 | 311 | 13.0 | 26.0 | 0.00 | 0.00 | 0.00 | 26 | 1011.2 |
| 20260507001004 | 83 | 299 | 17.0 | 26.0 | 0.00 | 0.00 | 0.00 | 25 | 1011.1 |
| 20260507000505 | 83 | 298 | 18.0 | 26.0 | 0.00 | 0.00 | 0.00 | 25 | 1011.0 |
| 20260507000031 | 84 | 303 | 16.0 | 24.0 | 0.00 | 0.00 | 0.00 | 23 | 1010.9 |
| 20260506235509 | 84 | 300 | 18.0 | 23.0 | 0.00 | 0.00 | 0.00 | 23 | 1010.7 |
| 20260506235007 | 85 | 282 | 14.0 | 22.0 | 0.00 | 0.00 | 0.00 | 23 | 1010.6 |
| 20260506234528 | 85 | 298 | 16.0 | 25.0 | 0.00 | 0.00 | 0.00 | 24 | 1010.5 |
| 20260506234010 | 85 | 296 | 18.0 | 25.0 | 0.00 | 0.00 | 0.00 | 24 | 1010.6 |
| 20260506233504 | 85 | 313 | 18.0 | 24.0 | 0.00 | 0.00 | 0.00 | 25 | 1010.5 |
| 20260506233020 | 86 | 311 | 19.0 | 24.0 | 0.00 | 0.00 | 0.00 | 24 | 1010.5 |
| 20260506232508 | 86 | 328 | 17.0 | 21.0 | 0.00 | 0.00 | 0.00 | 25 | 1010.4 |
| 20260506232010 | 86 | 330 | 13.0 | 19.0 | 0.00 | 0.00 | 0.00 | 27 | 1010.5 |
| 20260506231525 | 86 | 299 | 5.0 | 12.0 | 0.00 | 0.00 | 0.00 | 27 | 1010.5 |
| 20260506231009 | 86 | 314 | 7.0 | 12.0 | 0.00 | 0.00 | 0.00 | 26 | 1010.6 |
| 20260506230510 | 86 | 267 | 6.0 | 12.0 | 0.00 | 0.00 | 0.00 | 24 | 1010.6 |
| 20260506230029 | 86 | 281 | 5.0 | 8.0 | 0.00 | 0.00 | 0.00 | 26 | 1010.6 |
| 20260506225504 | 86 | 352 | 3.0 | 7.0 | 0.00 | 0.00 | 0.00 | 27 | 1010.7 |
| 20260506225008 | 86 | 14 | 4.0 | 8.0 | 0.00 | 0.00 | 0.00 | 26 | 1010.9 |
| 20260506224522 | 86 | 327 | 4.0 | 8.0 | 0.00 | 0.00 | 0.00 | 25 | 1011.0 |
| 20260506224008 | 86 | 311 | 1.0 | 8.0 | 0.00 | 0.00 | 0.00 | 25 | 1011.0 |
| 20260506223508 | 86 | 300 | 5.0 | 13.0 | 0.00 | 0.00 | 0.00 | 26 | 1011.1 |
| 20260506223025 | 86 | 311 | 5.0 | 13.0 | 0.00 | 0.00 | 0.00 | 25 | 1011.2 |
| 20260506222507 | 85 | 334 | 6.0 | 11.0 | 0.00 | 0.00 | 0.00 | 27 | 1011.3 |
| 20260506222009 | 85 | 279 | 4.0 | 11.0 | 0.00 | 0.00 | 0.00 | 25 | 1011.3 |
| 20260506221515 | 85 | 360 | 3.0 | 8.0 | 0.00 | 0.00 | 0.00 | 25 | 1011.4 |
| 20260506221008 | 85 | 307 | 4.0 | 8.0 | 0.00 | 0.00 | 0.00 | 26 | 1011.4 |
| 20260506220509 | 85 | 300 | 2.0 | 6.0 | 0.00 | 0.00 | 0.00 | 27 | 1011.4 |
| 20260506220025 | 84 | 305 | 4.0 | 10.0 | 0.00 | 0.00 | 0.00 | 25 | 1011.4 |
| 20260506215509 | 84 | 315 | 7.0 | 13.0 | 0.00 | 0.00 | 0.00 | 25 | 1011.4 |
| 20260506215008 | 85 | 10 | 4.0 | 13.0 | 0.00 | 0.00 | 0.00 | 28 | 1011.4 |
| 20260506214529 | 85 | 339 | 7.0 | 11.0 | 0.00 | 0.00 | 0.00 | 25 | 1011.5 |
| 20260506214012 | 85 | 174 | 1.0 | 4.0 | 0.00 | 0.00 | 0.00 | 25 | 1011.5 |
| 20260506213509 | 84 | 65 | 1.0 | 8.0 | 0.00 | 0.00 | 0.00 | 24 | 1011.5 |
| 20260506213022 | 84 | 21 | 5.0 | 10.0 | 0.00 | 0.00 | 0.00 | 26 | 1011.5 |
| 20260506212506 | 84 | 341 | 3.0 | 14.0 | 0.00 | 0.00 | 0.00 | 27 | 1011.6 |
| 20260506212004 | 85 | 324 | 10.0 | 14.0 | 0.00 | 0.00 | 0.00 | 25 | 1011.6 |
| 20260506211507 | 85 | 311 | 8.0 | 14.0 | 0.00 | 0.00 | 0.00 | 30 | 1011.5 |
| 20260506211004 | 85 | 352 | 5.0 | 11.0 | 0.00 | 0.00 | 0.00 | 25 | 1011.7 |
| 20260506210504 | 85 | 12 | 4.0 | 11.0 | 0.00 | 0.00 | 0.00 | 27 | 1011.8 |
| 20260506210030 | 85 | 36 | 4.0 | 13.0 | 0.00 | 0.00 | 0.00 | 25 | 1011.7 |
| 20260506205507 | 85 | 334 | 4.0 | 16.0 | 0.00 | 0.00 | 0.00 | 26 | 1011.7 |
| 20260506205005 | 85 | 346 | 10.0 | 18.0 | 0.00 | 0.00 | 0.00 | 24 | 1011.7 |
| 20260506204528 | 85 | 352 | 12.0 | 18.0 | 0.00 | 0.00 | 0.00 | 26 | 1011.7 |
| 20260506204004 | 85 | 315 | 11.0 | 16.0 | 0.00 | 0.00 | 0.00 | 26 | 1011.6 |
| 20260506203504 | 85 | 313 | 4.0 | 12.0 | 0.00 | 0.00 | 0.00 | 23 | 1011.7 |
| 20260506203007 | 85 | 290 | 3.0 | 7.0 | 0.00 | 0.00 | 0.00 | 28 | 1011.6 |
| 20260506202503 | 85 | 111 | 1.0 | 8.0 | 0.00 | 0.00 | 0.00 | 26 | 1011.7 |
| 20260506202009 | 84 | 38 | 2.0 | 15.0 | 0.00 | 0.00 | 0.00 | 24 | 1011.6 |
| 20260506201527 | 84 | 261 | 9.0 | 15.0 | 0.00 | 0.00 | 0.00 | 30 | 1011.6 |
| 20260506201009 | 84 | 248 | 4.0 | 13.0 | 0.00 | 0.00 | 0.00 | 31 | 1011.5 |
| 20260506200508 | 83 | 169 | 9.0 | 15.0 | 0.00 | 0.00 | 0.00 | 29 | 1011.5 |
| 20260506200031 | 83 | 140 | 8.0 | 18.0 | 0.00 | 0.00 | 0.00 | 33 | 1011.6 |
| 20260506195507 | 83 | 126 | 12.0 | 18.0 | 0.00 | 0.00 | 0.00 | 31 | 1011.7 |
| 20260506195004 | 83 | 123 | 10.0 | 18.0 | 0.00 | 0.00 | 0.00 | 31 | 1011.8 |
| 20260506194512 | 83 | 151 | 10.0 | 18.0 | 0.00 | 0.00 | 0.00 | 31 | 1011.9 |
| 20260506194008 | 82 | 152 | 8.0 | 17.0 | 0.00 | 0.00 | 0.00 | 31 | 1011.9 |
| 20260506193506 | 82 | 150 | 9.0 | 17.0 | 0.00 | 0.00 | 0.00 | 34 | 1012.0 |
| 20260506193038 | 82 | 162 | 10.0 | 16.0 | 0.00 | 0.00 | 0.00 | 33 | 1012.0 |
| 20260506192512 | 81 | 158 | 9.0 | 17.0 | 0.00 | 0.00 | 0.00 | 35 | 1012.2 |
| 20260506192008 | 81 | 117 | 11.0 | 17.0 | 0.00 | 0.00 | 0.00 | 33 | 1012.3 |
| 20260506191510 | 81 | 107 | 10.0 | 18.0 | 0.00 | 0.00 | 0.00 | 34 | 1012.4 |
| 20260506191004 | 80 | 141 | 13.0 | 18.0 | 0.00 | 0.00 | 0.00 | 37 | 1012.4 |
| 20260506190506 | 80 | 123 | 9.0 | 17.0 | 0.00 | 0.00 | 0.00 | 36 | 1012.4 |
| 20260506190020 | 80 | 112 | 8.0 | 15.0 | 0.00 | 0.00 | 0.00 | 37 | 1012.5 |
| 20260506185508 | 80 | 125 | 10.0 | 15.0 | 0.00 | 0.00 | 0.00 | 36 | 1012.6 |
| 20260506185008 | 79 | 163 | 7.0 | 13.0 | 0.00 | 0.00 | 0.00 | 37 | 1012.5 |
| 20260506184531 | 79 | 134 | 11.0 | 15.0 | 0.00 | 0.00 | 0.00 | 38 | 1012.5 |
| 20260506184009 | 79 | 128 | 10.0 | 15.0 | 0.00 | 0.00 | 0.00 | 41 | 1012.6 |
| 20260506183504 | 79 | 157 | 7.0 | 12.0 | 0.00 | 0.00 | 0.00 | 37 | 1012.7 |
| 20260506183010 | 78 | 161 | 7.0 | 13.0 | 0.00 | 0.00 | 0.00 | 38 | 1012.8 |
| 20260506182506 | 78 | 136 | 9.0 | 13.0 | 0.00 | 0.00 | 0.00 | 40 | 1012.8 |
| 20260506182011 | 78 | 137 | 7.0 | 13.0 | 0.00 | 0.00 | 0.00 | 42 | 1012.9 |
| 20260506181535 | 77 | 99 | 4.0 | 12.0 | 0.00 | 0.00 | 0.00 | 41 | 1013.0 |
| 20260506181007 | 77 | 112 | 7.0 | 12.0 | 0.00 | 0.00 | 0.00 | 44 | 1013.0 |
| 20260506180508 | 77 | 126 | 8.0 | 11.0 | 0.00 | 0.00 | 0.00 | 41 | 1013.0 |
| 20260506180028 | 77 | 146 | 7.0 | 12.0 | 0.00 | 0.00 | 0.00 | 40 | 1013.0 |
| 20260506175507 | 77 | 136 | 6.0 | 13.0 | 0.00 | 0.00 | 0.00 | 41 | 1013.1 |
| 20260506175004 | 76 | 143 | 5.0 | 13.0 | 0.00 | 0.00 | 0.00 | 38 | 1013.1 |
| 20260506174516 | 77 | 123 | 9.0 | 12.0 | 0.00 | 0.00 | 0.00 | 42 | 1013.1 |
| 20260506174002 | 76 | 106 | 5.0 | 11.0 | 0.00 | 0.00 | 0.00 | 44 | 1013.1 |
| 20260506173503 | 76 | 101 | 7.0 | 12.0 | 0.00 | 0.00 | 0.00 | 39 | 1013.2 |
| 20260506173004 | 76 | 125 | 11.0 | 12.0 | 0.00 | 0.00 | 0.00 | 43 | 1013.2 |
| 20260506172504 | 76 | 102 | 4.0 | 10.0 | 0.00 | 0.00 | 0.00 | 45 | 1013.2 |
| 20260506172005 | 76 | 185 | 4.0 | 8.0 | 0.00 | 0.00 | 0.00 | 43 | 1013.2 |
| 20260506171516 | 75 | 155 | 4.0 | 8.0 | 0.00 | 0.00 | 0.00 | 43 | 1013.2 |
| 20260506171003 | 75 | 91 | 5.0 | 7.0 | 0.00 | 0.00 | 0.00 | 44 | 1013.3 |
| 20260506170508 | 76 | 107 | 4.0 | 6.0 | 0.00 | 0.00 | 0.00 | 42 | 1013.4 |
| 20260506170006 | 76 | 63 | 2.0 | 3.0 | 0.00 | 0.00 | 0.00 | 42 | 1013.5 |
| 20260506165506 | 76 | 63 | 1.0 | 3.0 | 0.00 | 0.00 | 0.00 | 41 | 1013.5 |
| 20260506165003 | 76 | 70 | 0.0 | 2.0 | 0.00 | 0.00 | 0.00 | 39 | 1013.6 |
| 20260506164507 | 75 | 70 | 1.0 | 2.0 | 0.00 | 0.00 | 0.00 | 38 | 1013.7 |
| 20260506164002 | 75 | 75 | 1.0 | 2.0 | 0.00 | 0.00 | 0.00 | 40 | 1013.6 |
| 20260506163504 | 74 | 98 | 0.0 | 2.0 | 0.00 | 0.00 | 0.00 | 38 | 1013.7 |
| 20260506163020 | 74 | 94 | 1.0 | 2.0 | 0.00 | 0.00 | 0.00 | 44 | 1013.7 |
| 20260506162509 | 73 | 337 | 0.0 | 3.0 | 0.00 | 0.00 | 0.00 | 40 | 1013.8 |
| 20260506162002 | 73 | 352 | 2.0 | 5.0 | 0.00 | 0.00 | 0.00 | 41 | 1013.8 |
| 20260506161503 | 73 | 323 | 2.0 | 5.0 | 0.00 | 0.00 | 0.00 | 40 | 1013.8 |
| 20260506161006 | 73 | 20 | 1.0 | 3.0 | 0.00 | 0.00 | 0.00 | 46 | 1013.8 |
| 20260506160503 | 73 | 340 | 1.0 | 3.0 | 0.00 | 0.00 | 0.00 | 47 | 1013.9 |
| 20260506160010 | 72 | 306 | 0.0 | 2.0 | 0.00 | 0.00 | 0.00 | 44 | 1013.8 |
| 20260506155504 | 72 | 333 | 0.0 | 4.0 | 0.00 | 0.00 | 0.00 | 46 | 1013.9 |
| 20260506155006 | 71 | 331 | 1.0 | 4.0 | 0.00 | 0.00 | 0.00 | 43 | 1013.8 |
| 20260506154521 | 71 | 325 | 2.0 | 4.0 | 0.00 | 0.00 | 0.00 | 44 | 1013.8 |
| 20260506154003 | 70 | 334 | 4.0 | 4.0 | 0.00 | 0.00 | 0.00 | 46 | 1013.8 |
| 20260506153504 | 70 | 335 | 2.0 | 3.0 | 0.00 | 0.00 | 0.00 | 45 | 1013.8 |
| 20260506153004 | 70 | 262 | 1.0 | 3.0 | 0.00 | 0.00 | 0.00 | 49 | 1013.8 |
| 20260506152506 | 69 | 65 | 0.0 | 2.0 | 0.00 | 0.00 | 0.00 | 51 | 1013.7 |
| 20260506152006 | 68 | 65 | 0.0 | 2.0 | 0.00 | 0.00 | 0.00 | 55 | 1013.7 |
| 20260506151512 | 67 | 65 | 0.0 | 1.0 | 0.00 | 0.00 | 0.00 | 62 | 1013.8 |
| 20260506151008 | 66 | 106 | 1.0 | 2.0 | 0.00 | 0.00 | 0.00 | 63 | 1013.8 |
| 20260506150506 | 65 | 107 | 0.0 | 2.0 | 0.00 | 0.00 | 0.00 | 68 | 1013.9 |
| 20260506150013 | 64 | 107 | 0.0 | 2.0 | 0.00 | 0.00 | 0.00 | 68 | 1013.8 |
| 20260506145503 | 63 | 106 | 0.0 | 2.0 | 0.00 | 0.00 | 0.00 | 66 | 1013.9 |
| 20260506145002 | 62 | 106 | 0.0 | 2.0 | 0.00 | 0.00 | 0.00 | 67 | 1013.9 |
| 20260506144508 | 61 | 107 | 0.0 | 2.0 | 0.00 | 0.00 | 0.00 | 68 | 1013.9 |
| 20260506144004 | 60 | 106 | 0.0 | 2.0 | 0.00 | 0.00 | 0.00 | 68 | 1013.9 |
| 20260506143504 | 60 | 106 | 0.0 | 3.0 | 0.00 | 0.00 | 0.00 | 71 | 1013.9 |
| 20260506143024 | 59 | 115 | 2.0 | 3.0 | 0.00 | 0.00 | 0.00 | 68 | 1013.8 |
| 20260506142507 | 59 | 101 | 2.0 | 3.0 | 0.00 | 0.00 | 0.00 | 69 | 1013.8 |
| 20260506142008 | 59 | 69 | 0.0 | 0.0 | 0.00 | 0.00 | 0.00 | 69 | 1013.8 |
| 20260506141504 | 58 | 69 | 0.0 | 0.0 | 0.00 | 0.00 | 0.00 | 69 | 1013.8 |
| 20260506141003 | 57 | 69 | 0.0 | 0.0 | 0.00 | 0.00 | 0.00 | 70 | 1013.7 |
| 20260506140503 | 56 | 69 | 0.0 | 0.0 | 0.00 | 0.00 | 0.00 | 70 | 1013.7 |
| 20260506140018 | 56 | 69 | 0.0 | 0.0 | 0.00 | 0.00 | 0.00 | 1013.6 | |
| 20260506135507 | 55 | 69 | 0.0 | 0.0 | 0.00 | 0.00 | 0.00 | 72 | 1013.6 |
| 20260506135006 | 55 | 69 | 0.0 | 0.0 | 0.00 | 0.00 | 0.00 | 72 | 1013.6 |
| 20260506134523 | 54 | 59 | 0.0 | 0.0 | 0.00 | 0.00 | 0.00 | 72 | 1013.5 |
| 20260506134012 | 54 | 59 | 0.0 | 0.0 | 0.00 | 0.00 | 0.00 | 73 | 1013.4 |
| 20260506133506 | 53 | 59 | 0.0 | 0.0 | 0.00 | 0.00 | 0.00 | 73 | 1013.3 |
| 20260506133006 | 53 | 97 | 0.0 | 2.0 | 0.00 | 0.00 | 0.00 | 74 | 1013.2 |
| 20260506132503 | 53 | 97 | 0.0 | 2.0 | 0.00 | 0.00 | 0.00 | 72 | 1013.1 |
| 20260506132005 | 54 | 118 | 1.0 | 2.0 | 0.00 | 0.00 | 0.00 | 71 | 1013.1 |
| 20260506131515 | 54 | 360 | 0.0 | 2.0 | 0.00 | 0.00 | 0.00 | 70 | 1013.1 |
| 20260506131009 | 55 | 360 | 0.0 | 4.0 | 0.00 | 0.00 | 0.00 | 69 | 1013.0 |
| 20260506130509 | 55 | 360 | 1.0 | 8.0 | 0.00 | 0.00 | 0.00 | 67 | 1012.9 |
| 20260506130024 | 56 | 79 | 1.0 | 8.0 | 0.00 | 0.00 | 0.00 | 66 | 1012.9 |
| 20260506125503 | 55 | 225 | 4.0 | 7.0 | 0.00 | 0.00 | 0.00 | 67 | 1012.7 |
| 20260506125006 | 55 | 201 | 5.0 | 7.0 | 0.00 | 0.00 | 0.00 | 67 | 1012.7 |
| 20260506124510 | 55 | 198 | 5.0 | 8.0 | 0.00 | 0.00 | 0.00 | 67 | 1012.7 |
| 20260506124006 | 55 | 196 | 6.0 | 8.0 | 0.00 | 0.00 | 0.00 | 66 | 1012.7 |
| 20260506123508 | 55 | 202 | 7.0 | 8.0 | 0.00 | 0.00 | 0.00 | 66 | 1012.7 |
| 20260506123020 | 55 | 200 | 6.0 | 8.0 | 0.00 | 0.00 | 0.00 | 67 | 1012.6 |
| 20260506122505 | 55 | 205 | 5.0 | 7.0 | 0.00 | 0.00 | 0.00 | 65 | 1012.6 |
| 20260506122009 | 55 | 219 | 4.0 | 8.0 | 0.00 | 0.00 | 0.00 | 66 | 1012.7 |
| 20260506121508 | 55 | 213 | 6.0 | 8.0 | 0.00 | 0.00 | 0.00 | 67 | 1012.7 |
| 20260506121004 | 54 | 199 | 6.0 | 7.0 | 0.00 | 0.00 | 0.00 | 69 | 1012.6 |
| 20260506120508 | 54 | 200 | 3.0 | 7.0 | 0.00 | 0.00 | 0.00 | 70 | 1012.6 |
| 20260506120018 | 54 | 209 | 3.0 | 7.0 | 0.00 | 0.00 | 0.00 | 68 | 1012.6 |
| 20260506115504 | 56 | 196 | 6.0 | 7.0 | 0.00 | 0.00 | 0.00 | 67 | 1012.6 |
| 20260506115007 | 56 | 234 | 0.0 | 2.0 | 0.00 | 0.00 | 0.00 | 64 | 1012.5 |
| 20260506114528 | 56 | 234 | 0.0 | 2.0 | 0.00 | 0.00 | 0.00 | 65 | 1012.4 |
| 20260506114009 | 56 | 268 | 0.0 | 2.0 | 0.00 | 0.00 | 0.00 | 65 | 1012.4 |
| 20260506113508 | 56 | 268 | 1.0 | 2.0 | 0.00 | 0.00 | 0.00 | 65 | 1012.4 |
| 20260506113011 | 56 | 269 | 1.0 | 2.0 | 0.00 | 0.00 | 0.00 | 66 | 1012.6 |
| 20260506112505 | 55 | 155 | 1.0 | 2.0 | 0.00 | 0.00 | 0.00 | 67 | 1012.5 |
| 20260506112006 | 55 | 163 | 1.0 | 3.0 | 0.00 | 0.00 | 0.00 | 66 | 1012.5 |
| 20260506111520 | 56 | 216 | 1.0 | 3.0 | 0.00 | 0.00 | 0.00 | 66 | 1012.4 |
| 20260506111005 | 56 | 216 | 2.0 | 2.0 | 0.00 | 0.00 | 0.00 | 65 | 1012.4 |
| 20260506110511 | 56 | 216 | 1.0 | 2.0 | 0.00 | 0.00 | 0.00 | 65 | 1012.3 |
| 20260506110028 | 56 | 229 | 2.0 | 4.0 | 0.00 | 0.00 | 0.00 | 65 | 1012.4 |
| 20260506105508 | 56 | 229 | 2.0 | 5.0 | 0.00 | 0.00 | 0.00 | 65 | 1012.3 |
| 20260506105003 | 55 | 211 | 3.0 | 5.0 | 0.00 | 0.00 | 0.00 | 66 | 1012.2 |
| 20260506104533 | 56 | 190 | 4.0 | 5.0 | 0.00 | 0.00 | 0.00 | 65 | 1012.1 |
| 20260506104006 | 56 | 189 | 3.0 | 5.0 | 0.00 | 0.00 | 0.00 | 63 | 1012.0 |
| 20260506103507 | 57 | 106 | 1.0 | 2.0 | 0.00 | 0.00 | 0.00 | 62 | 1012.0 |
| 20260506103025 | 57 | 106 | 1.0 | 2.0 | 0.00 | 0.00 | 0.00 | 63 | 1012.0 |
| 20260506102507 | 56 | 106 | 0.0 | 1.0 | 0.00 | 0.00 | 0.00 | 65 | 1011.9 |
| 20260506102007 | 56 | 106 | 0.0 | 2.0 | 0.00 | 0.00 | 0.00 | 66 | 1011.9 |
| 20260506101526 | 57 | 106 | 0.0 | 2.0 | 0.00 | 0.00 | 0.00 | 68 | 1012.0 |
| 20260506101004 | 57 | 106 | 2.0 | 2.0 | 0.00 | 0.00 | 0.00 | 67 | 1012.0 |
| 20260506100506 | 58 | 48 | 1.0 | 2.0 | 0.00 | 0.00 | 0.00 | 66 | 1011.9 |
| 20260506100019 | 58 | 316 | 0.0 | 0.0 | 0.00 | 0.00 | 0.00 | 65 | 1011.9 |
| 20260506095506 | 58 | 316 | 0.0 | 1.0 | 0.00 | 0.00 | 0.00 | 65 | 1011.9 |
| 20260506095010 | 58 | 316 | 0.0 | 2.0 | 0.00 | 0.00 | 0.00 | 65 | 1011.9 |
| 20260506094534 | 59 | 316 | 0.0 | 2.0 | 0.00 | 0.00 | 0.00 | 64 | 1012.0 |
| 20260506094014 | 60 | 316 | 0.0 | 2.0 | 0.00 | 0.00 | 0.00 | 1011.9 | |
| 20260506093511 | 60 | 292 | 0.0 | 1.0 | 0.00 | 0.00 | 0.00 | 60 | 1011.9 |
| 20260506093014 | 60 | 292 | 0.0 | 2.0 | 0.00 | 0.00 | 0.00 | 60 | 1011.8 |
| 20260506092506 | 60 | 292 | 1.0 | 2.0 | 0.00 | 0.00 | 0.00 | 61 | 1011.8 |
| 20260506092007 | 60 | 306 | 1.0 | 2.0 | 0.00 | 0.00 | 0.00 | 1011.9 | |
| 20260506091524 | 61 | 345 | 0.0 | 2.0 | 0.00 | 0.00 | 0.00 | 60 | 1011.8 |
| 20260506091003 | 61 | 345 | 1.0 | 2.0 | 0.00 | 0.00 | 0.00 | 60 | 1011.9 |
| 20260506090509 | 61 | 345 | 1.0 | 3.0 | 0.00 | 0.00 | 0.00 | 59 | 1011.9 |
| 20260506090007 | 62 | 345 | 2.0 | 3.0 | 0.00 | 0.00 | 0.00 | 58 | 1011.8 |
| 20260506085506 | 62 | 324 | 2.0 | 3.0 | 0.00 | 0.00 | 0.00 | 55 | 1011.8 |